Погода в Артигасе

Уругвай     30°24′29″S   56°28′12″W
темп.,
°C
ветер,
м/с
пор.,
м/с
влажн.,
%
обл.,
%
осадки,
мм/ч
давл.,
гПа
погр.,
м
18 мая, вт
вт1800:00+9юв347660 0.0 102152
03:00+8юв33835 0.0 102134
06:00+7вюв33905 0.0 102033
09:00+11вюв34800 0.0 1022152
12:00+17вюв33540 0.0 1021688
15:00+19вюв22420 0.0 1018964
18:00+14вюв22575 0.0 101711
21:00+11вюв3369100 0.0 101937
19 мая, ср
ср1900:00+9вюв357575 0.0 101861
03:00+8вюв347734 0.0 101747
06:00+8вюв3478100 0.0 101746
09:00+10в3567100 0.0 1018131
12:00+18в5645100 0.0 1016486
15:00+20в5639100 0.0 1014690
18:00+15вюв3355100 0.0 101527
21:00+14вюв5956100 0.0 1014152
20 мая, чт
чт2000:00+14в4855100 0.1 1015187
03:00+11в5893100 7.0 1014246
06:00+11всв4893100 0.6 1013198
09:00+12в4792100 2.9 1016282
12:00+14в4585100 1.4 1015332
15:00+14всв4589100 2.3 1013310
18:00+14в5995100 0.6 1012254
21:00+13в3697100 1.6 1013185
21 мая, пт
пт2100:00+13в4798100 0.3 1012243
03:00+13в5998100 0.3 1010283
06:00+13вюв4899100 0.1 1010240
09:00+14в4998100 1.8 1011292
12:00+15всв71098100 2.9 1009384
15:00+16в4795100 4.1 1007422
18:00+15вюв4897100 0.1 1008473
21:00+14вюв3797100 0.6 1009332
22 мая, сб
сб2200:00+14юв3597100 0.4 1008197
03:00+13св119851 0.6 100819
06:00+14з41098100 0.1 1009533
09:00+12зюз6119397 0.1 1011546
12:00+16зюз796931 0.0 10111050
15:00+15зюз79630 0.0 1011972
18:00+12зюз49690 0.0 1011180
21:00+9з411802 0.0 1013227